User: anonymous   Login
Location: Unspecified
(0.0000°N, 0.0000°E)
Time: 12:58:49
(UTC+00:00)
Language:

MERIDIAN 4 - Orbit

View from above orbital plane
View from above orbital plane
View from above satellite
View from above satellite

Ground track
Ground track

The orbit data is extracted from the following two-line orbital elements,

1 37398U 11018A   17351.93830465  .00000276  00000-0  10000-3 0  9995
2 37398  64.4955 145.8156 6832216 262.9638 346.8526  2.00596521 48522
Epoch (UTC): 17 December 2017 22:31:09
Eccentricity: 0.6832216
inclination: 64.4955°
perigee height: 2034 km
apogee height: 38323 km
right ascension of ascending node: 145.8156°
argument of perigee: 262.9638°
revolutions per day: 2.00596521
mean anomaly at epoch: 346.8526°
orbit number at epoch: 4852

The dashed part of the orbit path shows where the satellite is in the earth's shadow,  

DLR